| time (UTC) | temp F | wind direction | speed knots | gust knots | rain 1hr in | rain 24hr in | rain mn in | humidity % | barometer mb |
| 20260507050521 | 49 | 26 | 0.9 | 2.6 | 0.00 | 0.13 | 0.00 | 92 | 1007.2 |
| 20260507045522 | 49 | 0.0 | 0.0 | 0.00 | 0.13 | 0.00 | 92 | 1007.0 | |
| 20260507044522 | 50 | 25 | 0.0 | 0.0 | 0.00 | 0.13 | 0.00 | 91 | 1007.0 |
| 20260507043522 | 50 | 236 | 0.0 | 0.9 | 0.00 | 0.13 | 0.00 | 91 | 1007.0 |
| 20260507042522 | 50 | 4 | 0.0 | 1.7 | 0.00 | 0.13 | 0.00 | 92 | 1007.2 |
| 20260507041522 | 51 | 327 | 0.9 | 1.7 | 0.00 | 0.13 | 0.00 | 92 | 1007.2 |
| 20260507040522 | 51 | 353 | 0.9 | 1.7 | 0.00 | 0.13 | 0.00 | 93 | 1007.1 |
| 20260507035522 | 52 | 27 | 0.9 | 1.7 | 0.00 | 0.13 | 0.13 | 94 | 1007.0 |
| 20260507034523 | 53 | 62 | 0.9 | 2.6 | 0.01 | 0.13 | 0.13 | 95 | 1006.9 |
| 20260507033523 | 53 | 54 | 0.0 | 0.9 | 0.01 | 0.13 | 0.13 | 95 | 1006.8 |
| 20260507032524 | 53 | 47 | 0.0 | 0.9 | 0.01 | 0.13 | 0.13 | 95 | 1006.6 |
| 20260507031543 | 54 | 36 | 0.0 | 2.6 | 0.01 | 0.13 | 0.13 | 94 | 1006.5 |
| 20260507030523 | 54 | 12 | 0.0 | 1.7 | 0.01 | 0.13 | 0.13 | 93 | 1006.2 |
| 20260507025544 | 55 | 25 | 0.9 | 1.7 | 0.01 | 0.13 | 0.13 | 92 | 1006.3 |
| 20260507024544 | 56 | 332 | 1.7 | 3.5 | 0.00 | 0.12 | 0.12 | 92 | 1006.6 |
| 20260507023524 | 57 | 354 | 0.9 | 2.6 | 0.00 | 0.12 | 0.12 | 93 | 1006.4 |
| 20260507022524 | 57 | 290 | 0.9 | 2.6 | 0.00 | 0.12 | 0.12 | 94 | 1006.2 |
| 20260507021524 | 58 | 322 | 0.0 | 1.7 | 0.00 | 0.12 | 0.12 | 97 | 1005.9 |
| 20260507020524 | 58 | 0.0 | 0.0 | 0.00 | 0.12 | 0.12 | 98 | 1005.9 | |
| 20260507015524 | 58 | 305 | 0.9 | 1.7 | 0.00 | 0.12 | 0.12 | 98 | 1005.7 |
| 20260507014525 | 58 | 270 | 0.0 | 0.0 | 0.00 | 0.12 | 0.12 | 98 | 1005.5 |
| 20260507013525 | 58 | 0.0 | 0.0 | 0.00 | 0.12 | 0.12 | 98 | 1005.4 | |
| 20260507012525 | 58 | 240 | 0.0 | 0.9 | 0.00 | 0.12 | 0.12 | 98 | 1005.4 |
| 20260507011526 | 58 | 258 | 0.0 | 0.0 | 0.00 | 0.12 | 0.12 | 98 | 1005.5 |
| 20260507010545 | 58 | 0.0 | 0.0 | 0.00 | 0.12 | 0.12 | 98 | 1005.4 | |
| 20260507005525 | 58 | 261 | 0.0 | 0.9 | 0.00 | 0.12 | 0.12 | 98 | 1005.5 |
| 20260507004525 | 58 | 0.0 | 0.0 | 0.00 | 0.12 | 0.12 | 98 | 1005.4 | |
| 20260507003525 | 58 | 250 | 0.0 | 0.9 | 0.00 | 0.12 | 0.12 | 98 | 1005.2 |
| 20260507002545 | 58 | 272 | 0.0 | 0.9 | 0.00 | 0.12 | 0.12 | 98 | 1005.1 |
| 20260507001526 | 58 | 288 | 0.0 | 0.9 | 0.00 | 0.12 | 0.12 | 98 | 1005.2 |
| 20260507000546 | 58 | 251 | 0.0 | 1.7 | 0.00 | 0.12 | 0.12 | 98 | 1005.2 |
| 20260506235526 | 58 | 248 | 0.0 | 1.7 | 0.00 | 0.12 | 0.12 | 98 | 1005.0 |
| 20260506234526 | 58 | 253 | 0.0 | 0.9 | 0.00 | 0.12 | 0.12 | 97 | 1005.0 |
| 20260506233526 | 58 | 0.0 | 0.0 | 0.00 | 0.12 | 0.12 | 97 | 1004.9 | |
| 20260506232527 | 58 | 0.0 | 0.0 | 0.00 | 0.12 | 0.12 | 97 | 1005.0 | |
| 20260506231606 | 58 | 284 | 0.0 | 0.9 | 0.00 | 0.12 | 0.12 | 97 | 1005.0 |
| 20260506230527 | 58 | 123 | 0.0 | 0.9 | 0.00 | 0.12 | 0.12 | 97 | 1005.0 |
| 20260506225527 | 58 | 287 | 0.0 | 1.7 | 0.00 | 0.12 | 0.12 | 97 | 1005.2 |
| 20260506224527 | 59 | 265 | 0.0 | 0.9 | 0.00 | 0.12 | 0.12 | 97 | 1005.2 |
| 20260506223547 | 59 | 271 | 0.0 | 0.9 | 0.00 | 0.12 | 0.12 | 97 | 1005.2 |
| 20260506222527 | 59 | 257 | 0.0 | 0.9 | 0.00 | 0.12 | 0.12 | 97 | 1005.3 |
| 20260506221527 | 59 | 262 | 0.0 | 1.7 | 0.00 | 0.12 | 0.12 | 97 | 1005.4 |
| 20260506220528 | 59 | 0.0 | 0.0 | 0.00 | 0.12 | 0.12 | 97 | 1005.4 | |
| 20260506215548 | 59 | 243 | 0.0 | 0.9 | 0.02 | 0.12 | 0.12 | 97 | 1005.4 |
| 20260506214528 | 59 | 259 | 0.0 | 1.7 | 0.02 | 0.12 | 0.12 | 96 | 1005.4 |
| 20260506213548 | 59 | 216 | 0.0 | 0.9 | 0.02 | 0.12 | 0.12 | 96 | 1005.4 |
| 20260506212528 | 59 | 261 | 0.0 | 0.9 | 0.02 | 0.12 | 0.12 | 96 | 1005.4 |
| 20260506211528 | 59 | 272 | 0.9 | 1.7 | 0.02 | 0.12 | 0.12 | 96 | 1005.5 |
| 20260506210528 | 60 | 282 | 0.9 | 1.7 | 0.02 | 0.12 | 0.11 | 96 | 1005.5 |
| 20260506205529 | 60 | 294 | 0.9 | 1.7 | 0.00 | 0.10 | 0.10 | 96 | 1005.6 |
| 20260506204549 | 60 | 284 | 0.9 | 2.6 | 0.01 | 0.10 | 0.10 | 95 | 1005.7 |
| 20260506203529 | 61 | 273 | 0.0 | 0.9 | 0.02 | 0.10 | 0.10 | 95 | 1005.7 |
| 20260506202609 | 61 | 276 | 0.0 | 1.7 | 0.02 | 0.10 | 0.10 | 95 | 1005.8 |
| 20260506201529 | 61 | 0.0 | 0.0 | 0.02 | 0.10 | 0.10 | 94 | 1005.9 | |
| 20260506200530 | 61 | 270 | 0.0 | 1.7 | 0.02 | 0.10 | 0.10 | 94 | 1005.9 |
| 20260506195555 | 61 | 315 | 0.0 | 1.7 | 0.02 | 0.10 | 0.10 | 94 | 1006.1 |
| 20260506194530 | 61 | 244 | 0.0 | 1.7 | 0.01 | 0.09 | 0.09 | 93 | 1006.2 |
| 20260506193550 | 61 | 293 | 0.0 | 1.7 | 0.01 | 0.08 | 0.08 | 93 | 1006.3 |
| 20260506192515 | 61 | 282 | 0.0 | 0.9 | 0.01 | 0.08 | 0.08 | 93 | 1006.2 |
| 20260506191515 | 61 | 20 | 0.0 | 1.7 | 0.02 | 0.08 | 0.08 | 93 | 1005.9 |
| 20260506190515 | 61 | 0.0 | 0.0 | 0.04 | 0.08 | 0.08 | 93 | 1006.0 | |
| 20260506185515 | 61 | 282 | 0.0 | 0.0 | 0.05 | 0.08 | 0.08 | 92 | 1006.3 |
| 20260506184515 | 61 | 0.0 | 0.0 | 0.07 | 0.08 | 0.08 | 92 | 1006.4 | |
| 20260506183516 | 61 | 64 | 0.0 | 0.9 | 0.08 | 0.08 | 0.08 | 91 | 1006.7 |
| 20260506182516 | 61 | 0.0 | 0.0 | 0.07 | 0.07 | 0.07 | 89 | 1006.8 | |
| 20260506181516 | 62 | 352 | 0.0 | 0.9 | 0.06 | 0.06 | 0.06 | 89 | 1007.0 |
| 20260506180516 | 63 | 210 | 0.0 | 0.9 | 0.04 | 0.05 | 0.04 | 86 | 1007.0 |
| 20260506175516 | 64 | 6 | 0.0 | 2.6 | 0.03 | 0.03 | 0.03 | 83 | 1007.3 |
| 20260506174517 | 66 | 254 | 0.9 | 2.6 | 0.01 | 0.01 | 0.01 | 76 | 1007.4 |
| 20260506173516 | 67 | 194 | 0.9 | 2.6 | 0.00 | 0.00 | 0.00 | 69 | 1007.2 |
| 20260506172517 | 68 | 228 | 1.7 | 2.6 | 0.00 | 0.00 | 0.00 | 64 | 1007.0 |
| 20260506171517 | 69 | 229 | 1.7 | 3.5 | 0.00 | 0.00 | 0.00 | 62 | 1006.9 |
| 20260506170518 | 70 | 257 | 1.7 | 3.5 | 0.00 | 0.00 | 0.00 | 61 | 1006.9 |
| 20260506165538 | 70 | 249 | 1.7 | 2.6 | 0.00 | 0.00 | 0.00 | 61 | 1007.0 |
| 20260506164518 | 69 | 271 | 0.9 | 3.5 | 0.00 | 0.00 | 0.00 | 62 | 1007.0 |
| 20260506163517 | 69 | 237 | 0.9 | 3.5 | 0.00 | 0.00 | 0.00 | 64 | 1007.1 |
| 20260506162518 | 69 | 303 | 0.0 | 0.9 | 0.00 | 0.00 | 0.00 | 66 | 1007.2 |
| 20260506161518 | 69 | 110 | 0.0 | 0.9 | 0.00 | 0.00 | 0.00 | 66 | 1007.3 |
| 20260506160518 | 69 | 253 | 0.0 | 0.9 | 0.00 | 0.00 | 0.00 | 65 | 1007.5 |
| 20260506155518 | 69 | 288 | 0.0 | 1.7 | 0.00 | 0.00 | 0.00 | 66 | 1007.8 |
| 20260506154518 | 69 | 269 | 0.0 | 1.7 | 0.00 | 0.00 | 0.00 | 66 | 1008.0 |
| 20260506153518 | 68 | 261 | 0.9 | 2.6 | 0.00 | 0.00 | 0.00 | 67 | 1008.1 |
| 20260506152519 | 69 | 258 | 0.9 | 3.5 | 0.00 | 0.00 | 0.00 | 66 | 1008.2 |
| 20260506151519 | 69 | 65 | 0.0 | 0.9 | 0.00 | 0.00 | 0.00 | 66 | 1008.4 |
| 20260506150519 | 68 | 283 | 0.9 | 2.6 | 0.00 | 0.00 | 0.00 | 66 | 1008.5 |
| 20260506145519 | 68 | 272 | 0.9 | 2.6 | 0.00 | 0.00 | 0.00 | 67 | 1008.2 |
| 20260506144519 | 68 | 266 | 0.9 | 2.6 | 0.00 | 0.00 | 0.00 | 66 | 1008.5 |
| 20260506143539 | 69 | 271 | 0.9 | 2.6 | 0.00 | 0.00 | 0.00 | 67 | 1008.4 |
| 20260506142520 | 68 | 245 | 0.9 | 1.7 | 0.00 | 0.00 | 0.00 | 69 | 1008.3 |
| 20260506141520 | 67 | 252 | 0.9 | 1.7 | 0.00 | 0.00 | 0.00 | 71 | 1008.3 |
| 20260506140519 | 66 | 272 | 0.0 | 1.7 | 0.00 | 0.00 | 0.00 | 72 | 1008.2 |
| 20260506135520 | 65 | 241 | 0.0 | 0.9 | 0.00 | 0.00 | 0.00 | 74 | 1008.1 |
| 20260506134520 | 64 | 345 | 0.0 | 1.7 | 0.00 | 0.00 | 0.00 | 74 | 1008.4 |
| 20260506133520 | 64 | 296 | 0.0 | 0.9 | 0.00 | 0.00 | 0.00 | 76 | 1008.6 |
| 20260506132521 | 63 | 233 | 0.9 | 2.6 | 0.00 | 0.00 | 0.00 | 76 | 1008.6 |
| 20260506131520 | 63 | 267 | 0.9 | 2.6 | 0.00 | 0.00 | 0.00 | 77 | 1008.7 |
| 20260506130521 | 63 | 20 | 0.0 | 2.6 | 0.00 | 0.00 | 0.00 | 77 | 1008.8 |
| 20260506125521 | 62 | 63 | 0.0 | 2.6 | 0.00 | 0.00 | 0.00 | 77 | 1008.7 |
| 20260506124622 | 62 | 360 | 0.0 | 2.6 | 0.00 | 0.00 | 0.00 | 78 | 1008.8 |
| 20260506123521 | 61 | 8 | 0.0 | 2.6 | 0.00 | 0.00 | 0.00 | 79 | 1008.8 |
| 20260506122521 | 61 | 260 | 0.0 | 1.7 | 0.00 | 0.00 | 0.00 | 79 | 1008.7 |
| 20260506121521 | 60 | 17 | 0.0 | 0.9 | 0.00 | 0.00 | 0.00 | 80 | 1008.7 |
| 20260506120602 | 60 | 250 | 0.0 | 0.9 | 0.00 | 0.00 | 0.00 | 80 | 1009.0 |
| 20260506115522 | 60 | 0.0 | 0.0 | 0.00 | 0.00 | 0.00 | 81 | 1009.0 | |
| 20260506114521 | 59 | 288 | 0.0 | 0.9 | 0.00 | 0.00 | 0.00 | 82 | 1009.1 |
| 20260506113522 | 59 | 268 | 0.0 | 0.9 | 0.00 | 0.00 | 0.00 | 82 | 1009.2 |
| 20260506112542 | 58 | 242 | 0.0 | 1.7 | 0.00 | 0.00 | 0.00 | 82 | 1009.2 |
| 20260506111522 | 58 | 258 | 0.0 | 0.9 | 0.00 | 0.00 | 0.00 | 83 | 1009.3 |
| 20260506110522 | 57 | 252 | 0.0 | 1.7 | 0.00 | 0.00 | 0.00 | 85 | 1009.2 |
| 20260506105543 | 56 | 266 | 0.0 | 0.9 | 0.00 | 0.00 | 0.00 | 86 | 1009.2 |
| 20260506104522 | 56 | 0.0 | 0.0 | 0.00 | 0.00 | 0.00 | 86 | 1009.2 | |
| 20260506103523 | 56 | 0.0 | 0.0 | 0.00 | 0.00 | 0.00 | 86 | 1009.3 | |
| 20260506102523 | 56 | 0.0 | 0.0 | 0.00 | 0.00 | 0.00 | 86 | 1009.1 | |
| 20260506101523 | 55 | 0.0 | 0.0 | 0.00 | 0.00 | 0.00 | 86 | 1009.0 | |
| 20260506100523 | 55 | 0.0 | 0.0 | 0.00 | 0.00 | 0.00 | 85 | 1009.2 | |
| 20260506095544 | 55 | 0.0 | 0.0 | 0.00 | 0.00 | 0.00 | 86 | 1009.1 | |
| 20260506094544 | 55 | 248 | 0.0 | 0.0 | 0.00 | 0.00 | 0.00 | 86 | 1009.1 |
| 20260506093524 | 55 | 303 | 0.0 | 0.9 | 0.00 | 0.00 | 0.00 | 86 | 1009.0 |
| 20260506092524 | 55 | 266 | 0.0 | 0.9 | 0.00 | 0.00 | 0.00 | 85 | 1008.8 |
| 20260506091524 | 55 | 247 | 0.0 | 0.9 | 0.00 | 0.00 | 0.00 | 85 | 1009.1 |
| 20260506090544 | 54 | 0.0 | 0.0 | 0.00 | 0.00 | 0.00 | 85 | 1008.9 | |
| 20260506085544 | 55 | 0.0 | 0.0 | 0.00 | 0.00 | 0.00 | 85 | 1009.0 | |
| 20260506084525 | 55 | 0.0 | 0.0 | 0.00 | 0.00 | 0.00 | 85 | 1009.1 | |
| 20260506083525 | 55 | 0.0 | 0.0 | 0.00 | 0.00 | 0.00 | 85 | 1009.1 | |
| 20260506082516 | 55 | 0.0 | 0.0 | 0.00 | 0.00 | 0.00 | 84 | 1009.0 | |
| 20260506081516 | 56 | 247 | 0.0 | 0.9 | 0.00 | 0.00 | 0.00 | 83 | 1009.0 |
| 20260506080536 | 56 | 229 | 0.0 | 0.0 | 0.00 | 0.00 | 0.00 | 82 | 1009.0 |
| 20260506073516 | 57 | 17 | 0.0 | 2.6 | 0.00 | 0.00 | 0.00 | 80 | 1009.0 |
| 20260506072537 | 58 | 3 | 0.0 | 0.9 | 0.00 | 0.00 | 0.00 | 79 | 1008.8 |
| 20260506071557 | 58 | 3 | 0.0 | 2.6 | 0.00 | 0.00 | 0.00 | 77 | 1008.8 |
| 20260506070517 | 58 | 0.0 | 0.0 | 0.00 | 0.00 | 0.00 | 77 | 1008.7 | |
| 20260506061518 | 59 | 278 | 0.0 | 0.9 | 0.00 | 0.00 | 0.00 | 76 | 1008.6 |
| 20260506060538 | 59 | 0.0 | 0.0 | 0.00 | 0.00 | 0.00 | 76 | 1008.6 |